Weather Roundup
Issued by NWS Chicago, IL

Home | Current Version | Previous Version | Text Only | Print | Product List | Glossary Off
Versions: 1 2 3 4 5 6 7 8 9 10 11 12 13 14 15 16 17 18 19 20 21 22 23 24 25 26 27 28 29 30 31 32 33 34 35 36 37 38 39 40 41 42 43 44 45 46 47 48 49 50

000
NZUS59 KLOT 291612
HRRLOT

CHICAGO AREA WEATHER ROUNDUP
NATIONAL WEATHER SERVICE CHICAGO/ROMEOVILLE IL
1100 AM CDT SAT AUG 29 2015

NOTE: "FAIR" INDICATES FEW OR NO CLOUDS BELOW 12,000 FEET WITH NO
SIGNIFICANT WEATHER AND/OR OBSTRUCTIONS TO VISIBILITY.

* THESE STATIONS ARE NOT UNDER NWS QUALITY CONTROL. THEY ALSO MAY NOT
  REPORT WEATHER SUCH AS PRECIPITATION OR FOG.

ILZ005-006-012>014-019>023-291700-
NORTHEAST ILLINOIS

CITY           SKY/WX    TMP DP  RH WIND       PRES   REMARKS
OHARE          CLOUDY    67  64  90 E6        30.04R
MIDWAY         CLOUDY    70  63  78 SE6       30.04S
AURORA         CLOUDY    68  64  87 SE3       30.05R FOG
LANSING*       CLOUDY    68  64  88 SE6       30.05S
JOLIET*        CLOUDY    70  66  87 S5        30.03F
WAUKEGAN       CLOUDY    63  62  97 E7        30.04S FOG
DUPAGE AIRPORT LGT RAIN  66  63  90 E5        30.04R FOG
WHEELING       HVY RAIN  65  63  93 SE5       30.06R FOG
KANKAKEE*      CLOUDY    69  66  91 SW3       30.07R
MORRIS*        CLOUDY    70  65  84 S5        30.03R
LEWIS AIRPORT* CLOUDY    69  64  83 S9        30.04S
NORTHERLY IS     N/A     65  62  90 SE2         N/A
$$

WIZ051-052-058>065-066-070>072-291700-
SOUTHEAST WISCONSIN

CITY           SKY/WX    TMP DP  RH WIND       PRES   REMARKS
MILWAUKEE      CLOUDY    63  60  90 SE10      30.05S
KENOSHA*       CLOUDY    64  62  93 SE8       30.05S
RACINE*        CLOUDY    63  60  90 SE7       30.07S
BURLINGTON     CLOUDY    61  61  98 SE3       30.05S FOG
WAUKESHA       CLOUDY    61  61 100 SE3       30.06S FOG
WEST BEND      DRIZZLE   61  61 100 CALM      30.07R
$$

INZ001>003-010>013-019-020-291700-
NORTHWEST INDIANA

CITY           SKY/WX    TMP DP  RH WIND       PRES   REMARKS
GARY*          CLOUDY    68  64  88 SE6       30.06S
MICHIGAN CITY* NOT AVBL
RENSSELAER*    NOT AVBL
VALPARAISO     CLOUDY    68  64  87 E6        30.07F
$$

LMZ740>746-291700-
SOUTHERN LAKE MICHIGAN

STATION/POSITION TIME  SKY/WX   TEMP WIND        PRES    VSBY
                                AIR  DIR/SP/G
                 (UTC)          (F)  (DEG/KT/KT) (MB)    (MI)
HARRISON CRIB    1500            66  130/ 15/ 17   N/A
BURNHAM HARBOR   1600            65  160/  1/  7   N/A
CALUMET HARBOR   NOT AVBL
BURNS HARBOR     1500            67  120/  7/ 11 1018.6F
MICHIGAN CITY    1500            64   60/  8/  9   N/A
$$

ABBREVIATIONS USED IN REMARKS
   TC - TEMPERATURE IN CELSIUS
  WCI - WIND CHILL INDEX
   HX - HEAT INDEX
  VSB - VISIBILITY
$$



USA.gov is the U.S. government's official web portal to all federal, state and local government web resources and services.